DAL2932 KMSP-KRDU

Flight info

Callsign DAL2932
Flight time 1h 59m
Altitude 35000
Route ZMBRO7 ODI JVL CGT BONNT DQN HNN FRIKY ALDAN4
Aircraft A321/M-SDE3FGHIRWY/LB1

Departure

Time 2026-05-06 05:07
Airport Minneapolis–Saint Paul International Airport / Wold–Chamberlain Field (KMSP)

Arrival

Time 2026-05-06 07:07
Airport Raleigh-Durham International Airport (KRDU)
Time Latitude Longitude Altitude Speed Heading
2026-05-06 04:38 44.87986 -93.20844 826 ft 0 kts 32°
2026-05-06 04:56 44.87974 -93.20855 824 ft 4 kts 31°
2026-05-06 04:56 44.87951 -93.20875 825 ft 4 kts 32°
2026-05-06 04:57 44.87931 -93.20898 825 ft 4 kts 56°
2026-05-06 04:57 44.87922 -93.20930 825 ft 4 kts 97°
2026-05-06 04:57 44.87927 -93.20952 825 ft 1 kts 121°
2026-05-06 04:57 44.87928 -93.20954 825 ft 0 kts 121°
2026-05-06 05:01 44.87927 -93.20953 825 ft 0 kts 121°
2026-05-06 05:02 44.87925 -93.20948 825 ft 3 kts 121°
2026-05-06 05:02 44.87902 -93.20893 826 ft 7 kts 121°
2026-05-06 05:02 44.87877 -93.20836 825 ft 6 kts 121°
2026-05-06 05:03 44.87855 -93.20785 823 ft 6 kts 121°
2026-05-06 05:03 44.87828 -93.20723 823 ft 9 kts 121°
2026-05-06 05:03 44.87797 -93.20657 823 ft 7 kts 130°
2026-05-06 05:03 44.87760 -93.20633 826 ft 5 kts 184°
2026-05-06 05:04 44.87718 -93.20631 826 ft 11 kts 160°
2026-05-06 05:04 44.87648 -93.20507 825 ft 18 kts 122°
2026-05-06 05:04 44.87584 -93.20359 826 ft 17 kts 120°
2026-05-06 05:04 44.87530 -93.20234 825 ft 11 kts 125°
2026-05-06 05:05 44.87489 -93.20161 824 ft 8 kts 121°
2026-05-06 05:05 44.87463 -93.20102 826 ft 6 kts 125°
2026-05-06 05:05 44.87424 -93.20083 827 ft 9 kts 179°
2026-05-06 05:05 44.87376 -93.20120 826 ft 7 kts 238°
2026-05-06 05:06 44.87381 -93.20189 827 ft 7 kts 292°
2026-05-06 05:06 44.87398 -93.20230 825 ft 0 kts 302°
2026-05-06 05:06 44.87398 -93.20231 825 ft 0 kts 302°
2026-05-06 05:06 44.87460 -93.20371 822 ft 54 kts 302°
2026-05-06 05:07 44.87809 -93.21170 826 ft 133 kts 301°
2026-05-06 05:07 44.88391 -93.22513 997 ft 178 kts 302°
2026-05-06 05:07 44.89058 -93.24052 1718 ft 189 kts 303°
2026-05-06 05:07 44.89737 -93.25614 2515 ft 186 kts 305°
2026-05-06 05:08 44.89962 -93.26126 2689 ft 191 kts 304°
2026-05-06 05:08 44.91252 -93.29061 3215 ft 231 kts 304°
2026-05-06 05:08 44.92114 -93.31013 3786 ft 242 kts 302°
2026-05-06 05:08 44.92675 -93.33258 4568 ft 249 kts 277°
2026-05-06 05:09 44.92685 -93.35705 5433 ft 251 kts 271°
2026-05-06 05:09 44.92599 -93.38177 6272 ft 253 kts 270°
2026-05-06 05:09 44.92496 -93.40675 6826 ft 256 kts 270°
2026-05-06 05:09 44.92155 -93.43143 6966 ft 262 kts 249°
2026-05-06 05:10 44.91087 -93.45256 7016 ft 268 kts 232°
2026-05-06 05:10 44.89796 -93.47154 7069 ft 270 kts 226°
2026-05-06 05:10 44.88146 -93.48527 7620 ft 282 kts 201°
2026-05-06 05:10 44.86174 -93.48821 8441 ft 291 kts 175°
2026-05-06 05:11 44.84267 -93.47812 9213 ft 298 kts 145°
2026-05-06 05:11 44.82853 -93.45667 9970 ft 302 kts 126°
2026-05-06 05:11 44.81639 -93.43232 10392 ft 316 kts 126°
2026-05-06 05:11 44.80338 -93.40596 10536 ft 339 kts 126°
2026-05-06 05:12 44.78957 -93.37794 10859 ft 353 kts 126°
2026-05-06 05:12 44.77543 -93.34933 11458 ft 359 kts 126°
2026-05-06 05:12 44.76107 -93.32042 12117 ft 362 kts 126°
2026-05-06 05:12 44.74646 -93.29112 12789 ft 366 kts 127°
2026-05-06 05:13 44.73172 -93.26172 13435 ft 370 kts 127°
2026-05-06 05:13 44.71677 -93.23202 14044 ft 374 kts 127°
2026-05-06 05:13 44.70161 -93.20198 14612 ft 378 kts 127°
2026-05-06 05:13 44.68634 -93.17175 15176 ft 381 kts 127°
2026-05-06 05:14 44.67092 -93.14117 15746 ft 385 kts 127°
2026-05-06 05:14 44.65559 -93.11074 16295 ft 389 kts 128°
2026-05-06 05:14 44.63991 -93.07957 16848 ft 392 kts 128°
2026-05-06 05:14 44.62410 -93.04819 17398 ft 396 kts 128°
2026-05-06 05:15 44.60812 -93.01651 17943 ft 399 kts 128°
2026-05-06 05:15 44.59196 -92.98457 18452 ft 403 kts 128°
2026-05-06 05:15 44.57563 -92.95236 18866 ft 407 kts 129°
2026-05-06 05:15 44.55907 -92.91975 19237 ft 413 kts 130°
2026-05-06 05:16 44.54229 -92.88677 19633 ft 418 kts 130°
2026-05-06 05:16 44.52528 -92.85340 20017 ft 423 kts 130°
2026-05-06 05:16 44.50806 -92.81968 20398 ft 427 kts 131°
2026-05-06 05:16 44.49068 -92.78567 20771 ft 432 kts 131°
2026-05-06 05:17 44.47302 -92.75121 21150 ft 436 kts 132°
2026-05-06 05:17 44.45546 -92.71634 21527 ft 442 kts 130°
2026-05-06 05:17 44.43866 -92.67991 21897 ft 448 kts 128°
2026-05-06 05:17 44.42255 -92.64226 22245 ft 454 kts 127°
2026-05-06 05:18 44.40667 -92.60366 22602 ft 460 kts 127°
2026-05-06 05:18 44.39075 -92.56463 22890 ft 464 kts 127°
2026-05-06 05:18 44.37477 -92.52586 23185 ft 469 kts 128°
2026-05-06 05:18 44.35819 -92.48639 23507 ft 473 kts 129°
2026-05-06 05:19 44.34125 -92.44676 23801 ft 476 kts 129°
2026-05-06 05:19 44.32409 -92.40712 24110 ft 479 kts 129°
2026-05-06 05:19 44.30673 -92.36727 24440 ft 481 kts 129°
2026-05-06 05:19 44.28930 -92.32727 24766 ft 483 kts 129°
2026-05-06 05:20 44.27181 -92.28703 25073 ft 486 kts 129°
2026-05-06 05:20 44.25424 -92.24652 25383 ft 488 kts 129°
2026-05-06 05:20 44.23662 -92.20584 25705 ft 490 kts 129°
2026-05-06 05:20 44.21895 -92.16502 26010 ft 493 kts 129°
2026-05-06 05:21 44.20118 -92.12399 26279 ft 495 kts 129°
2026-05-06 05:21 44.18341 -92.08302 26649 ft 495 kts 129°
2026-05-06 05:21 44.14776 -92.00116 27268 ft 499 kts 129°
2026-05-06 05:22 44.13551 -91.97318 27464 ft 500 kts 130°
2026-05-06 05:22 44.11141 -91.91826 27867 ft 503 kts 130°
2026-05-06 05:22 44.09929 -91.89065 28068 ft 505 kts 130°
2026-05-06 05:22 44.07472 -91.83474 28439 ft 508 kts 130°
2026-05-06 05:23 44.05628 -91.79284 28707 ft 510 kts 130°
2026-05-06 05:23 44.03775 -91.75077 28972 ft 512 kts 130°
2026-05-06 05:23 44.00041 -91.66600 29503 ft 514 kts 129°
2026-05-06 05:24 43.98168 -91.62365 29802 ft 515 kts 129°
2026-05-06 05:24 43.96918 -91.59547 29975 ft 517 kts 129°
2026-05-06 05:24 43.95668 -91.56735 30129 ft 518 kts 129°
2026-05-06 05:24 43.93135 -91.51045 30476 ft 518 kts 129°
2026-05-06 05:25 43.90544 -91.45508 30894 ft 511 kts 135°
2026-05-06 05:25 43.88383 -91.41588 31184 ft 510 kts 136°
2026-05-06 05:25 43.86952 -91.39000 31401 ft 510 kts 135°
2026-05-06 05:25 43.84798 -91.35098 31699 ft 510 kts 135°
2026-05-06 05:26 43.82644 -91.31197 31992 ft 510 kts 135°
2026-05-06 05:26 43.80484 -91.27293 32290 ft 509 kts 135°
2026-05-06 05:26 43.78335 -91.23413 32616 ft 508 kts 135°
2026-05-06 05:26 43.76178 -91.19532 32936 ft 507 kts 135°
2026-05-06 05:27 43.74028 -91.15669 33235 ft 507 kts 135°
2026-05-06 05:27 43.71876 -91.11804 33518 ft 507 kts 135°
2026-05-06 05:27 43.69720 -91.07941 33817 ft 506 kts 135°
2026-05-06 05:27 43.67568 -91.04089 34070 ft 506 kts 135°
2026-05-06 05:28 43.65415 -91.00237 34311 ft 506 kts 135°
2026-05-06 05:28 43.63267 -90.96397 34547 ft 506 kts 135°
2026-05-06 05:28 43.61115 -90.92556 34769 ft 504 kts 135°
2026-05-06 05:28 43.58968 -90.88724 34934 ft 504 kts 135°
2026-05-06 05:29 43.54741 -90.81185 34963 ft 498 kts 136°
2026-05-06 05:29 43.50493 -90.73654 34980 ft 497 kts 136°
2026-05-06 05:30 43.46241 -90.66152 34981 ft 496 kts 136°
2026-05-06 05:30 43.41987 -90.58652 34941 ft 495 kts 136°
2026-05-06 05:31 43.37749 -90.51175 34987 ft 495 kts 136°
2026-05-06 05:31 43.33540 -90.43773 34979 ft 494 kts 136°
2026-05-06 05:32 43.29289 -90.36337 34974 ft 494 kts 136°
2026-05-06 05:32 43.25046 -90.28941 34973 ft 494 kts 136°
2026-05-06 05:33 43.20799 -90.21536 34930 ft 494 kts 136°
2026-05-06 05:33 43.16539 -90.14125 34940 ft 495 kts 136°
2026-05-06 05:34 43.12259 -90.06712 34949 ft 496 kts 137°
2026-05-06 05:34 43.07966 -89.99301 34949 ft 497 kts 137°
2026-05-06 05:35 43.03700 -89.91930 34946 ft 498 kts 137°
2026-05-06 05:35 42.99394 -89.84508 34939 ft 499 kts 137°
2026-05-06 05:36 42.95072 -89.77086 34957 ft 500 kts 137°
2026-05-06 05:36 42.90737 -89.69660 34965 ft 499 kts 137°
2026-05-06 05:37 42.86399 -89.62269 34963 ft 499 kts 137°
2026-05-06 05:37 42.82052 -89.54872 34964 ft 499 kts 137°
2026-05-06 05:38 42.77739 -89.47533 34963 ft 499 kts 137°
2026-05-06 05:38 42.73387 -89.40153 34963 ft 499 kts 137°
2026-05-06 05:39 42.69041 -89.32803 34965 ft 499 kts 137°
2026-05-06 05:39 42.64680 -89.25444 34969 ft 499 kts 137°
2026-05-06 05:40 42.60329 -89.18118 34918 ft 498 kts 138°
2026-05-06 05:40 42.55958 -89.10802 34939 ft 498 kts 138°
2026-05-06 05:41 42.51458 -89.03722 34948 ft 494 kts 141°
2026-05-06 05:41 42.46830 -88.96937 34961 ft 493 kts 142°
2026-05-06 05:42 42.42156 -88.90133 34962 ft 493 kts 142°
2026-05-06 05:42 42.37531 -88.83264 34935 ft 494 kts 142°
2026-05-06 05:43 42.32912 -88.76341 34960 ft 497 kts 142°
2026-05-06 05:43 42.28272 -88.69427 34966 ft 496 kts 142°
2026-05-06 05:44 42.23619 -88.62544 34968 ft 495 kts 142°
2026-05-06 05:44 42.18959 -88.55684 34964 ft 495 kts 142°
2026-05-06 05:45 42.14305 -88.48843 34924 ft 495 kts 143°
2026-05-06 05:45 42.09679 -88.42039 34910 ft 495 kts 143°
2026-05-06 05:46 42.05026 -88.35207 34915 ft 495 kts 143°
2026-05-06 05:46 42.00368 -88.28394 34915 ft 495 kts 143°
2026-05-06 05:47 41.95695 -88.21592 34901 ft 496 kts 143°
2026-05-06 05:47 41.90994 -88.14755 34924 ft 499 kts 143°
2026-05-06 05:48 41.86275 -88.07894 34921 ft 499 kts 143°
2026-05-06 05:48 41.81559 -88.01053 34921 ft 499 kts 143°
2026-05-06 05:49 41.76834 -87.94221 34919 ft 498 kts 143°
2026-05-06 05:49 41.72099 -87.87407 34895 ft 502 kts 144°
2026-05-06 05:50 41.67336 -87.80559 34902 ft 504 kts 144°
2026-05-06 05:50 41.62556 -87.73680 34911 ft 504 kts 144°
2026-05-06 05:51 41.57802 -87.66867 34920 ft 504 kts 144°
2026-05-06 05:51 41.53013 -87.60019 34880 ft 504 kts 145°
2026-05-06 05:52 41.50672 -87.56473 34915 ft 516 kts 138°
2026-05-06 05:52 41.48571 -87.52555 34933 ft 522 kts 135°
2026-05-06 05:52 41.44421 -87.44576 34931 ft 523 kts 135°
2026-05-06 05:53 41.40261 -87.36598 34925 ft 523 kts 135°
2026-05-06 05:53 41.36094 -87.28663 34917 ft 523 kts 135°
2026-05-06 05:54 41.31936 -87.20775 34919 ft 524 kts 135°
2026-05-06 05:54 41.27729 -87.12804 34919 ft 529 kts 135°
2026-05-06 05:55 41.23487 -87.04786 34937 ft 530 kts 135°
2026-05-06 05:55 41.19247 -86.96781 34943 ft 530 kts 135°
2026-05-06 05:56 41.15000 -86.88785 34919 ft 530 kts 135°
2026-05-06 05:56 41.10739 -86.80794 34922 ft 530 kts 136°
2026-05-06 05:57 41.06485 -86.72865 34895 ft 530 kts 136°
2026-05-06 05:57 41.02215 -86.64889 34913 ft 530 kts 135°
2026-05-06 05:58 40.97943 -86.56928 34928 ft 530 kts 136°
2026-05-06 05:58 40.93669 -86.48992 34910 ft 530 kts 135°
2026-05-06 05:59 40.89384 -86.41058 34935 ft 529 kts 135°
2026-05-06 05:59 40.85099 -86.33155 34916 ft 529 kts 135°
2026-05-06 06:00 40.80831 -86.25290 34911 ft 530 kts 135°
2026-05-06 06:00 40.76535 -86.17386 34895 ft 531 kts 135°
2026-05-06 06:01 40.72220 -86.09486 34906 ft 530 kts 135°
2026-05-06 06:01 40.68629 -86.02930 34899 ft 530 kts 135°
2026-05-06 06:02 40.63577 -85.93707 34930 ft 530 kts 135°
2026-05-06 06:02 40.59249 -85.85847 34935 ft 530 kts 135°
2026-05-06 06:03 40.54913 -85.78000 34934 ft 530 kts 135°
2026-05-06 06:03 40.50583 -85.70149 34937 ft 531 kts 133°
2026-05-06 06:04 40.47038 -85.61543 34937 ft 544 kts 122°
2026-05-06 06:04 40.43789 -85.52581 34935 ft 544 kts 123°
2026-05-06 06:05 40.40497 -85.43635 34923 ft 544 kts 123°
2026-05-06 06:05 40.37206 -85.34722 34900 ft 543 kts 123°
2026-05-06 06:06 40.33905 -85.25765 34943 ft 545 kts 123°
2026-05-06 06:06 40.30603 -85.16832 34946 ft 545 kts 123°
2026-05-06 06:07 40.27288 -85.07893 34943 ft 544 kts 123°
2026-05-06 06:07 40.24531 -85.00489 34929 ft 544 kts 123°
2026-05-06 06:08 40.20651 -84.90098 34933 ft 543 kts 123°
2026-05-06 06:08 40.17359 -84.81285 34910 ft 542 kts 123°
2026-05-06 06:09 40.14038 -84.72432 34907 ft 542 kts 123°
2026-05-06 06:09 40.11244 -84.65035 34867 ft 541 kts 123°
2026-05-06 06:10 40.07930 -84.56270 34888 ft 541 kts 123°
2026-05-06 06:10 40.04591 -84.47458 34875 ft 541 kts 123°
2026-05-06 06:11 40.01143 -84.38756 34879 ft 534 kts 130°
2026-05-06 06:11 39.97038 -84.30739 34877 ft 531 kts 132°
2026-05-06 06:12 39.92913 -84.22742 34873 ft 531 kts 131°
2026-05-06 06:12 39.88796 -84.14747 34880 ft 531 kts 131°
2026-05-06 06:13 39.84681 -84.06786 34850 ft 530 kts 131°
2026-05-06 06:13 39.80556 -83.98834 34857 ft 529 kts 131°
2026-05-06 06:14 39.76429 -83.90907 34824 ft 529 kts 131°
2026-05-06 06:14 39.72325 -83.83032 34834 ft 529 kts 131°
2026-05-06 06:15 39.68198 -83.75139 34836 ft 529 kts 131°
2026-05-06 06:15 39.64060 -83.67250 34839 ft 528 kts 131°
2026-05-06 06:16 39.59920 -83.59359 34814 ft 528 kts 131°
2026-05-06 06:16 39.55776 -83.51492 34811 ft 528 kts 131°
2026-05-06 06:17 39.51626 -83.43636 34803 ft 529 kts 131°
2026-05-06 06:17 39.47490 -83.35820 34809 ft 529 kts 131°
2026-05-06 06:18 39.43323 -83.27965 34819 ft 529 kts 131°
2026-05-06 06:18 39.39149 -83.20111 34822 ft 530 kts 131°
2026-05-06 06:19 39.34974 -83.12276 34798 ft 529 kts 131°
2026-05-06 06:19 39.30787 -83.04447 34813 ft 528 kts 131°
2026-05-06 06:20 39.26603 -82.96653 34824 ft 528 kts 131°
2026-05-06 06:20 39.22425 -82.88861 34828 ft 528 kts 131°
2026-05-06 06:21 39.18260 -82.81123 34828 ft 528 kts 131°
2026-05-06 06:21 39.14067 -82.73366 34826 ft 528 kts 131°
2026-05-06 06:22 39.09870 -82.65619 34802 ft 528 kts 131°
2026-05-06 06:22 39.05673 -82.57870 34823 ft 528 kts 131°
2026-05-06 06:23 39.01467 -82.50127 34829 ft 527 kts 131°
2026-05-06 06:23 38.97255 -82.42396 34820 ft 527 kts 131°
2026-05-06 06:24 38.93040 -82.34680 34829 ft 527 kts 131°
2026-05-06 06:24 38.88824 -82.26985 34833 ft 527 kts 131°
2026-05-06 06:25 38.84625 -82.19337 34801 ft 527 kts 131°
2026-05-06 06:26 38.78280 -82.07814 34809 ft 527 kts 131°
2026-05-06 06:26 38.73868 -82.00372 34815 ft 521 kts 139°
2026-05-06 06:27 38.69054 -81.93422 34823 ft 521 kts 139°
2026-05-06 06:27 38.64240 -81.86479 34828 ft 521 kts 139°
2026-05-06 06:28 38.59421 -81.79541 34813 ft 521 kts 139°
2026-05-06 06:28 38.54629 -81.72658 34829 ft 522 kts 139°
2026-05-06 06:29 38.49794 -81.65725 34845 ft 522 kts 139°
2026-05-06 06:29 38.44955 -81.58806 34846 ft 524 kts 138°
2026-05-06 06:30 38.40097 -81.51870 34819 ft 524 kts 138°
2026-05-06 06:30 38.35220 -81.44922 34827 ft 525 kts 138°
2026-05-06 06:31 38.30340 -81.37992 34804 ft 526 kts 138°
2026-05-06 06:31 38.25478 -81.31100 34814 ft 527 kts 138°
2026-05-06 06:32 38.20574 -81.24160 34833 ft 527 kts 138°
2026-05-06 06:32 38.15670 -81.17225 34853 ft 526 kts 138°
2026-05-06 06:33 38.10759 -81.10307 34859 ft 526 kts 138°
2026-05-06 06:33 38.05857 -81.03419 34858 ft 526 kts 138°
2026-05-06 06:34 38.00947 -80.96532 34858 ft 526 kts 138°
2026-05-06 06:34 37.96030 -80.89659 34892 ft 526 kts 138°
2026-05-06 06:35 37.91128 -80.82817 34881 ft 527 kts 138°
2026-05-06 06:35 37.86195 -80.75939 34883 ft 528 kts 138°
2026-05-06 06:36 37.81254 -80.69061 34850 ft 528 kts 138°
2026-05-06 06:36 37.76306 -80.62183 34912 ft 528 kts 138°
2026-05-06 06:37 37.71346 -80.55318 34925 ft 529 kts 138°
2026-05-06 06:37 37.66389 -80.48471 34912 ft 528 kts 138°
2026-05-06 06:38 37.61428 -80.41652 34927 ft 528 kts 138°
2026-05-06 06:38 37.56461 -80.34833 34925 ft 527 kts 137°
2026-05-06 06:39 37.51503 -80.28011 34918 ft 527 kts 137°
2026-05-06 06:39 37.46586 -80.21250 34673 ft 526 kts 137°
2026-05-06 06:39 37.44113 -80.17856 34443 ft 525 kts 137°
2026-05-06 06:40 37.41651 -80.14485 34238 ft 523 kts 137°
2026-05-06 06:40 37.39187 -80.11120 33731 ft 522 kts 137°
2026-05-06 06:40 37.36717 -80.07754 33011 ft 523 kts 137°
2026-05-06 06:40 37.34256 -80.04403 32373 ft 522 kts 137°
2026-05-06 06:41 37.31791 -80.01050 31737 ft 521 kts 137°
2026-05-06 06:41 37.29333 -79.97711 31086 ft 520 kts 137°
2026-05-06 06:41 37.26889 -79.94391 30609 ft 515 kts 137°
2026-05-06 06:41 37.24472 -79.91107 30045 ft 506 kts 136°
2026-05-06 06:42 37.22172 -79.87831 29180 ft 491 kts 134°
2026-05-06 06:42 37.20070 -79.84580 28806 ft 468 kts 132°
2026-05-06 06:42 37.18154 -79.81452 28319 ft 451 kts 131°
2026-05-06 06:42 37.16285 -79.78335 27833 ft 442 kts 131°
2026-05-06 06:43 37.14460 -79.75301 27373 ft 432 kts 131°
2026-05-06 06:43 37.12643 -79.72334 26918 ft 427 kts 132°
2026-05-06 06:43 37.10822 -79.69414 26481 ft 424 kts 133°
2026-05-06 06:43 37.08993 -79.66522 26047 ft 421 kts 133°
2026-05-06 06:44 37.07179 -79.63670 25617 ft 418 kts 133°
2026-05-06 06:44 37.05367 -79.60829 25177 ft 415 kts 133°
2026-05-06 06:44 37.03567 -79.58005 24766 ft 413 kts 133°
2026-05-06 06:44 37.01785 -79.55199 24349 ft 411 kts 133°
2026-05-06 06:45 37.00016 -79.52408 23920 ft 409 kts 133°
2026-05-06 06:45 36.98251 -79.49621 23491 ft 407 kts 133°
2026-05-06 06:45 36.96502 -79.46860 23021 ft 404 kts 133°
2026-05-06 06:45 36.94758 -79.44109 22598 ft 400 kts 133°
2026-05-06 06:46 36.93035 -79.41396 22161 ft 397 kts 133°
2026-05-06 06:46 36.91325 -79.38708 21733 ft 394 kts 133°
2026-05-06 06:46 36.89625 -79.36036 21309 ft 391 kts 133°
2026-05-06 06:46 36.87937 -79.33384 20869 ft 389 kts 133°
2026-05-06 06:47 36.86255 -79.30747 20431 ft 386 kts 133°
2026-05-06 06:47 36.84608 -79.28166 20000 ft 384 kts 133°
2026-05-06 06:47 36.82944 -79.25560 19561 ft 383 kts 133°
2026-05-06 06:47 36.81264 -79.22932 19111 ft 381 kts 133°
2026-05-06 06:48 36.79637 -79.20390 18680 ft 380 kts 133°
2026-05-06 06:48 36.77990 -79.17818 18224 ft 379 kts 133°
2026-05-06 06:48 36.76345 -79.15247 17696 ft 378 kts 133°
2026-05-06 06:48 36.74712 -79.12694 17260 ft 375 kts 133°
2026-05-06 06:49 36.73088 -79.10162 16810 ft 372 kts 132°
2026-05-06 06:49 36.71482 -79.07658 16397 ft 368 kts 132°
2026-05-06 06:49 36.69886 -79.05173 15965 ft 365 kts 133°
2026-05-06 06:49 36.68112 -79.02964 15554 ft 357 kts 146°
2026-05-06 06:50 36.66034 -79.01343 15141 ft 349 kts 159°
2026-05-06 06:50 36.63771 -79.00347 14733 ft 341 kts 171°
2026-05-06 06:50 36.61469 -78.99695 14331 ft 338 kts 171°
2026-05-06 06:50 36.59176 -78.99037 13927 ft 337 kts 171°
2026-05-06 06:51 36.56896 -78.98375 13503 ft 335 kts 171°
2026-05-06 06:51 36.54644 -78.97720 13110 ft 332 kts 171°
2026-05-06 06:51 36.52399 -78.97065 12707 ft 329 kts 170°
2026-05-06 06:51 36.50177 -78.96413 12306 ft 327 kts 170°
2026-05-06 06:52 36.47967 -78.95768 11890 ft 325 kts 170°
2026-05-06 06:52 36.45772 -78.95131 11484 ft 323 kts 170°
2026-05-06 06:52 36.43629 -78.94510 11228 ft 316 kts 171°
2026-05-06 06:52 36.41507 -78.93862 11113 ft 306 kts 166°
2026-05-06 06:53 36.39612 -78.92781 10910 ft 303 kts 150°
2026-05-06 06:53 36.37966 -78.91115 10440 ft 311 kts 136°
2026-05-06 06:53 36.36483 -78.89187 10143 ft 305 kts 137°
2026-05-06 06:53 36.35009 -78.87294 9482 ft 302 kts 137°
2026-05-06 06:54 36.33548 -78.85433 8718 ft 298 kts 138°
2026-05-06 06:54 36.32145 -78.83643 8445 ft 279 kts 138°
2026-05-06 06:54 36.30823 -78.81959 8379 ft 267 kts 139°
2026-05-06 06:54 36.29546 -78.80344 8338 ft 255 kts 139°
2026-05-06 06:55 36.28313 -78.78803 8210 ft 249 kts 140°
2026-05-06 06:55 36.27100 -78.77287 7983 ft 248 kts 140°
2026-05-06 06:55 36.25895 -78.75769 7685 ft 243 kts 140°
2026-05-06 06:55 36.24749 -78.74311 7390 ft 230 kts 140°
2026-05-06 06:56 36.23659 -78.72923 7097 ft 219 kts 141°
2026-05-06 06:56 36.22619 -78.71602 6860 ft 210 kts 141°
2026-05-06 06:56 36.21644 -78.70366 6644 ft 196 kts 142°
2026-05-06 06:56 36.20736 -78.69209 6383 ft 180 kts 142°
2026-05-06 06:57 36.19890 -78.68135 6183 ft 170 kts 141°
2026-05-06 06:57 36.19068 -78.67102 5992 ft 167 kts 142°
2026-05-06 06:57 36.18186 -78.66202 5781 ft 164 kts 149°
2026-05-06 06:57 36.17298 -78.65321 5567 ft 163 kts 148°
2026-05-06 06:58 36.16415 -78.64441 5338 ft 162 kts 148°
2026-05-06 06:58 36.15543 -78.63571 5126 ft 160 kts 149°
2026-05-06 06:58 36.14678 -78.62708 4915 ft 159 kts 149°
2026-05-06 06:58 36.13817 -78.61849 4695 ft 158 kts 149°
2026-05-06 06:59 36.13251 -78.61284 4555 ft 157 kts 149°
2026-05-06 06:59 36.12400 -78.60438 4350 ft 156 kts 149°
2026-05-06 06:59 36.11496 -78.59762 4154 ft 149 kts 164°
2026-05-06 06:59 36.10533 -78.59413 4041 ft 142 kts 178°
2026-05-06 07:00 36.09552 -78.59363 3999 ft 141 kts 191°
2026-05-06 07:00 36.08589 -78.59598 4000 ft 142 kts 200°
2026-05-06 07:00 36.07620 -78.59923 4009 ft 145 kts 199°
2026-05-06 07:00 36.06644 -78.60245 4005 ft 145 kts 199°
2026-05-06 07:01 36.05669 -78.60565 4001 ft 145 kts 200°
2026-05-06 07:01 36.04693 -78.60885 4000 ft 145 kts 199°
2026-05-06 07:01 36.03719 -78.61205 3998 ft 145 kts 199°
2026-05-06 07:01 36.02776 -78.61577 3993 ft 144 kts 208°
2026-05-06 07:02 36.01990 -78.62339 3845 ft 144 kts 222°
2026-05-06 07:02 36.01249 -78.63174 3669 ft 144 kts 223°
2026-05-06 07:02 36.00523 -78.64034 3488 ft 144 kts 224°
2026-05-06 07:02 35.99810 -78.64901 3305 ft 144 kts 224°
2026-05-06 07:03 35.99102 -78.65771 3117 ft 143 kts 224°
2026-05-06 07:03 35.98398 -78.66640 2928 ft 142 kts 223°
2026-05-06 07:03 35.97710 -78.67491 2738 ft 143 kts 222°
2026-05-06 07:03 35.97012 -78.68356 2546 ft 142 kts 221°
2026-05-06 07:04 35.96316 -78.69218 2358 ft 142 kts 222°
2026-05-06 07:04 35.95619 -78.70082 2168 ft 141 kts 222°
2026-05-06 07:04 35.94929 -78.70937 1982 ft 140 kts 221°
2026-05-06 07:04 35.94243 -78.71786 1794 ft 140 kts 220°
2026-05-06 07:05 35.93556 -78.72637 1620 ft 140 kts 221°
2026-05-06 07:05 35.92862 -78.73495 1418 ft 145 kts 222°
2026-05-06 07:05 35.92163 -78.74361 1219 ft 142 kts 222°
2026-05-06 07:05 35.91465 -78.75224 1019 ft 143 kts 222°
2026-05-06 07:06 35.90768 -78.76088 832 ft 142 kts 224°
2026-05-06 07:06 35.90075 -78.76940 614 ft 140 kts 223°
2026-05-06 07:06 35.89398 -78.77777 451 ft 138 kts 221°
2026-05-06 07:06 35.88753 -78.78570 393 ft 104 kts 225°
2026-05-06 07:07 35.88387 -78.79032 391 ft 66 kts 225°
2026-05-06 07:07 35.88135 -78.79346 393 ft 36 kts 225°
2026-05-06 07:07 35.88003 -78.79476 390 ft 18 kts 195°
2026-05-06 07:07 35.87943 -78.79468 393 ft 4 kts 146°
2026-05-06 07:08 35.87929 -78.79451 393 ft 6 kts 121°
2026-05-06 07:08 35.87936 -78.79401 392 ft 6 kts 69°
2026-05-06 07:08 35.87935 -78.79358 392 ft 4 kts 119°
2026-05-06 07:08 35.87913 -78.79331 392 ft 4 kts 138°
2026-05-06 07:09 35.87893 -78.79305 392 ft 4 kts 128°
2026-05-06 07:09 35.87879 -78.79283 392 ft 0 kts 130°
2026-05-06 07:09 35.87878 -78.79282 392 ft 1 kts 130°
2026-05-06 07:09 35.87874 -78.79277 392 ft 0 kts 131°